Main page
METAR-TAF:

METAR-TAF

Airports :

Puerto Suárez International Airport

Puerto Suárez, Bolivia

latitude: 18-59S, longitude: 057-49W, elevation: 134 m

Current weather observation

The report was made 9 hours and 55 minutes ago, at 21:00 UTC
Calm wind
Temperature 35°C
Humidity 53%
Pressure 1005 hPa
Visibility 10 km or more
Broken clouds at a height of 1700 ft

METAR: SLPS 072100Z 00000KT 9999 BKN017 35/24 Q1005

Time: 02:55 (06:55 UTC)


TAF: missing

Weather observations and forecasts of more than 4000 airports (METAR and TAF reports).

The available stations are represented by yellow and red dots on the map.

Hover mouse over dot to see the name of the station.

Then click to see weather observations and forecasts.

To change the map : click on the green buttons with a black cross to zoom in, on the green button with a dash to zoom out, or on the green arrows for adjacent maps.


METAR-TAF: